TimeCST,TemperatureF,Dew PointF,Humidity,Sea Level PressureIn,VisibilityMPH,Wind Direction,Wind SpeedMPH,Gust SpeedMPH,PrecipitationIn,Events,Conditions,WindDirDegrees,DateUTC
12:15 AM,26.2,14.9,62,29.97,10.0,WNW,13.8,-,N/A,,Overcast,290,2013-02-13 06:15:00
12:35 AM,27.3,14.7,59,29.98,10.0,West,15.0,-,N/A,,Overcast,280,2013-02-13 06:35:00
12:55 AM,27.1,13.3,56,29.97,10.0,West,17.3,-,N/A,,Overcast,280,2013-02-13 06:55:00
1:15 AM,27.5,13.5,56,29.96,10.0,West,12.7,-,N/A,,Overcast,270,2013-02-13 07:15:00
1:35 AM,26.8,12.7,56,29.95,10.0,West,13.8,-,N/A,,Mostly Cloudy,260,2013-02-13 07:35:00
1:55 AM,26.2,13.6,59,29.94,10.0,West,11.5,-,N/A,,Scattered Clouds,260,2013-02-13 07:55:00
2:15 AM,25.9,13.8,60,29.94,10.0,West,8.1,-,N/A,,Scattered Clouds,260,2013-02-13 08:15:00
2:35 AM,26.1,14.9,63,29.94,10.0,West,9.2,-,N/A,,Scattered Clouds,270,2013-02-13 08:35:00
2:55 AM,27.5,15.3,60,29.93,10.0,West,17.3,-,N/A,,Clear,280,2013-02-13 08:55:00
3:15 AM,26.4,14.0,59,29.92,10.0,West,16.1,-,N/A,,Clear,280,2013-02-13 09:15:00
3:35 AM,24.6,13.6,63,29.92,10.0,West,13.8,-,N/A,,Clear,280,2013-02-13 09:35:00
3:55 AM,23.4,13.5,66,29.91,10.0,WNW,12.7,-,N/A,,Clear,290,2013-02-13 09:55:00
4:15 AM,23.2,13.5,66,29.91,10.0,West,11.5,-,N/A,,Clear,280,2013-02-13 10:15:00
4:35 AM,21.4,12.4,68,29.91,10.0,West,10.4,-,N/A,,Clear,280,2013-02-13 10:35:00
4:55 AM,20.7,12.2,70,29.90,10.0,West,13.8,-,N/A,,Clear,280,2013-02-13 10:55:00
5:15 AM,23.0,12.9,65,29.89,10.0,West,12.7,-,N/A,,Clear,270,2013-02-13 11:15:00
5:35 AM,22.3,12.6,66,29.89,10.0,West,11.5,-,N/A,,Clear,270,2013-02-13 11:35:00
5:55 AM,21.9,12.7,68,29.88,10.0,West,11.5,-,N/A,,Clear,270,2013-02-13 11:55:00
6:15 AM,21.2,12.7,70,29.88,10.0,West,9.2,-,N/A,,Clear,270,2013-02-13 12:15:00
6:35 AM,21.9,13.5,70,29.88,10.0,West,15.0,-,N/A,,Clear,280,2013-02-13 12:35:00
6:55 AM,22.3,14.0,71,29.89,10.0,WNW,12.7,-,N/A,,Clear,300,2013-02-13 12:55:00
7:15 AM,24.6,14.9,67,29.88,10.0,WNW,17.3,-,N/A,,Clear,290,2013-02-13 13:15:00
7:35 AM,23.5,14.5,69,29.88,10.0,WNW,15.0,-,N/A,,Clear,290,2013-02-13 13:35:00
7:55 AM,23.2,14.5,70,29.89,10.0,West,11.5,-,N/A,,Clear,280,2013-02-13 13:55:00
8:15 AM,23.2,14.9,71,29.88,10.0,WNW,12.7,-,N/A,,Clear,290,2013-02-13 14:15:00
8:35 AM,25.5,15.8,67,29.89,10.0,WNW,10.4,-,N/A,,Clear,300,2013-02-13 14:35:00
8:55 AM,27.1,16.3,64,29.89,10.0,NW,10.4,-,N/A,,Clear,310,2013-02-13 14:55:00
9:15 AM,30.9,17.6,58,29.89,10.0,WNW,15.0,-,N/A,,Clear,300,2013-02-13 15:15:00
9:35 AM,33.8,17.6,52,29.88,10.0,West,19.6,-,N/A,,Clear,280,2013-02-13 15:35:00
9:55 AM,32.9,17.8,54,29.89,10.0,West,18.4,24.2,N/A,,Clear,280,2013-02-13 15:55:00
10:15 AM,33.8,17.4,51,29.89,10.0,WNW,21.9,28.8,N/A,,Clear,290,2013-02-13 16:15:00
10:35 AM,36.1,17.4,47,29.90,10.0,WNW,24.2,29.9,N/A,,Clear,290,2013-02-13 16:35:00
10:55 AM,38.5,18.0,44,29.90,10.0,WNW,27.6,36.8,N/A,,Clear,290,2013-02-13 16:55:00
11:15 AM,39.4,19.0,44,29.90,10.0,WNW,32.2,42.6,N/A,,Clear,290,2013-02-13 17:15:00
11:35 AM,40.1,20.3,45,29.90,10.0,WNW,28.8,35.7,N/A,,Clear,290,2013-02-13 17:35:00
11:55 AM,40.1,20.8,46,29.90,10.0,WNW,29.9,41.4,N/A,,Clear,290,2013-02-13 17:55:00
12:15 PM,41.2,21.4,45,29.90,10.0,WNW,28.8,42.6,N/A,,Clear,300,2013-02-13 18:15:00
12:35 PM,42.6,21.2,43,29.90,10.0,WNW,31.1,44.9,N/A,,Clear,300,2013-02-13 18:35:00
12:55 PM,43.2,21.2,42,29.89,10.0,WNW,35.7,47.2,N/A,,Clear,300,2013-02-13 18:55:00
1:15 PM,43.0,20.8,41,29.89,10.0,WNW,34.5,50.6,N/A,,Clear,300,2013-02-13 19:15:00
1:35 PM,44.1,21.4,41,29.87,10.0,WNW,32.2,42.6,N/A,,Clear,300,2013-02-13 19:35:00
1:55 PM,44.8,21.4,40,29.86,10.0,WNW,33.4,43.7,N/A,,Clear,300,2013-02-13 19:55:00
2:15 PM,44.6,20.5,38,29.86,10.0,WNW,34.5,43.7,N/A,,Clear,300,2013-02-13 20:15:00
2:35 PM,45.0,20.5,38,29.85,10.0,WNW,29.9,40.3,N/A,,Clear,300,2013-02-13 20:35:00
2:55 PM,45.1,20.8,38,29.85,10.0,WNW,32.2,42.6,N/A,,Clear,300,2013-02-13 20:55:00
3:15 PM,44.8,21.7,40,29.85,10.0,WNW,32.2,39.1,N/A,,Clear,300,2013-02-13 21:15:00
3:35 PM,44.6,21.4,40,29.85,10.0,WNW,28.8,38.0,N/A,,Clear,300,2013-02-13 21:35:00
3:55 PM,44.4,22.1,41,29.86,10.0,WNW,29.9,40.3,N/A,,Clear,300,2013-02-13 21:55:00
4:15 PM,43.7,21.6,41,29.86,10.0,NW,27.6,40.3,N/A,,Clear,310,2013-02-13 22:15:00
4:35 PM,43.0,21.4,42,29.87,10.0,WNW,28.8,39.1,N/A,,Clear,300,2013-02-13 22:35:00
4:55 PM,42.6,21.9,44,29.87,10.0,WNW,24.2,32.2,N/A,,Clear,300,2013-02-13 22:55:00
5:15 PM,41.9,21.7,45,29.86,10.0,WNW,24.2,34.5,N/A,,Clear,300,2013-02-13 23:15:00
5:35 PM,41.0,22.1,47,29.87,10.0,WNW,29.9,35.7,N/A,,Clear,290,2013-02-13 23:35:00
5:55 PM,39.9,21.7,48,29.88,10.0,WNW,23.0,32.2,N/A,,Clear,300,2013-02-13 23:55:00
6:15 PM,38.7,21.2,50,29.89,10.0,WNW,19.6,27.6,N/A,,Scattered Clouds,300,2013-02-14 00:15:00
6:35 PM,37.4,21.2,52,29.88,10.0,WNW,20.7,27.6,N/A,,Scattered Clouds,300,2013-02-14 00:35:00
6:55 PM,36.7,21.2,54,29.87,10.0,WNW,25.3,34.5,N/A,,Clear,300,2013-02-14 00:55:00
7:15 PM,36.3,21.6,55,29.88,10.0,WNW,21.9,33.4,N/A,,Clear,300,2013-02-14 01:15:00
7:35 PM,36.0,21.7,56,29.89,10.0,WNW,21.9,28.8,N/A,,Clear,300,2013-02-14 01:35:00
7:55 PM,35.6,22.1,58,29.90,10.0,WNW,23.0,31.1,N/A,,Clear,300,2013-02-14 01:55:00
8:15 PM,35.6,22.6,59,29.91,10.0,NW,24.2,31.1,N/A,,Clear,310,2013-02-14 02:15:00
8:35 PM,34.7,23.0,62,29.93,10.0,NW,18.4,24.2,N/A,,Clear,310,2013-02-14 02:35:00
8:55 PM,34.2,23.4,65,29.94,10.0,NNW,17.3,23.0,N/A,,Clear,330,2013-02-14 02:55:00
9:15 PM,32.4,23.9,71,29.95,10.0,NNW,11.5,-,N/A,,Clear,340,2013-02-14 03:15:00
9:35 PM,32.7,28.4,84,29.95,10.0,North,13.8,23.0,N/A,,Scattered Clouds,360,2013-02-14 03:35:00
9:55 PM,32.7,30.2,90,29.96,10.0,North,16.1,19.6,N/A,,Mostly Cloudy,360,2013-02-14 03:55:00
10:15 PM,32.9,29.7,88,29.98,5.0,NNW,13.8,-,N/A,Snow,Light Snow,330,2013-02-14 04:15:00
10:35 PM,32.4,28.4,85,29.98,10.0,NW,10.4,-,N/A,,Overcast,320,2013-02-14 04:35:00
10:55 PM,32.5,28.4,85,29.98,10.0,NW,10.4,-,N/A,,Overcast,320,2013-02-14 04:55:00
11:15 PM,32.7,28.4,84,29.99,10.0,NW,11.5,-,N/A,,Overcast,320,2013-02-14 05:15:00
11:35 PM,32.9,27.3,80,29.99,10.0,NNW,16.1,-,N/A,,Overcast,330,2013-02-14 05:35:00
11:55 PM,32.0,25.9,78,29.98,10.0,NNW,16.1,-,N/A,,Mostly Cloudy,340,2013-02-14 05:55:00